Regional Weather Roundup
Issued by NWS

Home | Current Version | Previous Version | Text Only | Print | Product List | Glossary Off
Versions: 1 2 3 4 5 6 7 8 9 10 11 12 13 14 15 16 17 18 19 20 21 22 23 24 25 26 27 28 29 30 31 32 33 34 35 36 37 38 39 40 41 42 43 44 45 46 47 48 49 50

000
ASUS43 KMKX 201100
RWRWI

WISCONSIN REGIONAL WEATHER ROUNDUP
NATIONAL WEATHER SERVICE MILWAUKEE/SULLIVAN WI
600 AM CDT MON OCT 20 2014

NOTE: "FAIR" INDICATES FEW OR NO CLOUDS BELOW 12,000 FEET WITH NO
SIGNIFICANT WEATHER AND/OR OBSTRUCTIONS TO VISIBILITY.

WIZ001-002-006>008-014>016-023>028-201200-
NORTHWEST WISCONSIN

CITY           SKY/WX    TMP DP  RH WIND       PRES   REMARKS
SUPERIOR ARPT  CLEAR     43  40  89 SW3       29.89S
ASHLAND        CLOUDY    45  42  89 SW3       29.87R
HAYWARD        MOCLDY    37  35  92 CALM      29.89R
SIREN          CLEAR     41  39  93 CALM      29.91R
CUMBERLAND     CLEAR     43  39  87 NW5       29.89S
RICE LAKE      MOCLDY    42  39  88 W6        29.91R
CHETEK         PTCLDY    42  40  95 W3        29.89R
LADYSMITH      CLEAR     41  38  88 W3        29.88S
EAU CLAIRE     NOT AVBL
MENOMONIE      CLEAR     46  41  83 W3        29.91R
NEW RICHMOND   CLEAR     42  40  93 W7        29.92R
OSCEOLA        CLEAR     38  38 100 CALM      29.95R
$$

WIZ003>005-009-010-017-018-201200-
NORTH CENTRAL WISCONSIN

CITY           SKY/WX    TMP DP  RH WIND       PRES   REMARKS
MANITOWISH WTR CLOUDY    45  43  93 N3        29.83R
ARBOR VITAE    CLOUDY    47  43  87 N8        29.82R
WOODRUFF       CLOUDY    47  43  87 N8        29.82R
RHINELANDER    CLOUDY    46  42  86 NW3       29.83R
EAGLE RIVER    CLOUDY    45  43  91 N6        29.81R
LAND O LAKES   CLOUDY    45  41  85 N8        29.82R
PHILLIPS         N/A     36  36 100 CALM      29.84R FOG
TOMAHAWK       CLOUDY    41  40  97 CALM      29.83S
MEDFORD        CLEAR     39  38  96 W5        29.85R
MERRILL        PTCLDY    40  40  99 CALM      29.83R
$$

WIZ029-030-035-036-043>047-201200-
CENTRAL WISCONSIN

CITY           SKY/WX    TMP DP  RH WIND       PRES   REMARKS
WAUSAU         CLEAR     44  41  89 NW5       29.82R
MOSINEE        CLEAR     43  43 100 NW9       29.84R
MARSHFIELD     CLEAR     43  40  89 NW12      29.85R
STEVENS POINT  CLEAR     43  40  92 NW6       29.82R
WAUPACA        CLEAR     44  43  96 NW6       29.79R
WAUTOMA        PTCLDY    36  36 100 NW5       29.81R WCI  32
WISC RAPIDS    CLEAR     47  42  83 NW9       29.85R
CAMP DOUGLAS   NOT AVBL
$$

WIZ011>013-019>022-031-037>040-048>050-201200-
NORTHEAST WISCONSIN

CITY           SKY/WX    TMP DP  RH WIND       PRES   REMARKS
ANTIGO         PTCLDY    38  38 100 NW8       29.81R WCI  32
SHAWANO        CLEAR     40  38  94 CALM      29.79R FOG
OCONTO         CLOUDY    44  44 100 NW3       29.77R
STURGEON BAY   MOCLDY    46  43  87 NW6       29.77R
GREEN BAY      CLOUDY    41  40  96 CALM      29.78R
MANITOWOC      NOT AVBL
APPLETON       PTCLDY    43  41  93 W9        29.78R
CLINTONVILLE   CLEAR     37  37 100 NW5       29.79R WCI  34
OSHKOSH        PTCLDY    45  42  89 W7        29.78R
$$

WIZ032>034-041-042-053>061-201200-
SOUTHWEST WISCONSIN

CITY           SKY/WX    TMP DP  RH WIND       PRES   REMARKS
LA CROSSE      CLEAR     43  40  89 CALM      29.90R
SPARTA         CLEAR     48  41  77 NW6       29.88R
VIROQUA        CLEAR     48  42  80 NW10      29.87R
BOSCOBEL       CLEAR     45  41  86 CALM      29.88R
PRAIRIE DU CHI CLEAR     48  41  76 W8        29.88R
PLATTEVILLE    CLEAR     46  43  88 CALM      29.86R
$$

WIZ056-057-062-063-064-067-068-201200-
SOUTH CENTRAL WISCONSIN

CITY           SKY/WX    TMP DP  RH WIND       PRES   REMARKS
REEDSBURG      CLEAR     48  43  84 W5        29.83R
BARABOO/DELLS  PTCLDY    49  42  77 NW8       29.82R
LONE ROCK      NOT AVBL
MINERAL POINT  CLEAR     48  43  81 NW6       29.83R
MADISON        PTCLDY    46  42  86 NW3       29.81R
MIDDLETON      MOCLDY    50  44  79 NW8       29.81R
WATERTOWN      CLEAR     39  38  97 CALM      29.79R
MONROE         CLEAR     46  43  87 W14       29.80S
JANESVILLE     CLEAR     45  43  93 CALM      29.80R
$$

WIZ051-052-058>065-066-070>072-201200-
SOUTHEAST WISCONSIN

CITY           SKY/WX    TMP DP  RH WIND       PRES   REMARKS
MILWAUKEE      CLEAR     49  42  77 W7        29.77F
WAUKESHA       CLEAR     43  41  93 CALM      29.80R
MILWAUKEE/TIMM CLEAR     45  41  87 W6        29.78S
RACINE         CLEAR     48  42  80 W7        29.79S
BURLINGTON     CLEAR     42  40  94 W3        29.79S
KENOSHA        CLEAR     46  42  86 W7        29.78F
FOND DU LAC    PTCLDY    43  40  89 SW5       29.79R
SHEBOYGAN      CLEAR     45  41  86 W5        29.77R
WEST BEND      CLEAR     45  41  87 W3        29.78S
JUNEAU         PTCLDY    41  40  96 S5        29.79S
$$

LSZ147-162-201200-
LAKE SUPERIOR

STATION/POSITION TIME  TEMP    WIND        PRES    WAVE
                       AIR SEA DIR/SP/G            HT/PER
                 (UTC) (F)     (DEG/KT/KT) (MB)    (FT/S)
W MID LAKE BUOY  0950   47 46  340/  6/  6 1010.2R   1
DEVILS ISLAND    1000   51     330/ 13/ 15 1011.3R
PORT WING        1000   51     330/ 12/ 15 1011.9R
SAXON HARBOR     1000   48        CALM     1010.8R
$$

LMZ867-665-643>646-201200-
LAKE MICHIGAN

STATION/POSITION TIME  TEMP    WIND        PRES    WAVE
                       AIR SEA DIR/SP/G            HT/PER
                 (UTC) (F)     (DEG/KT/KT) (MB)    (FT/S)
CHAMBERS ISLAND  1000   50     280/  3/  6 1007.8R
N MID LAKE BUOY  0950   52 52  310/ 10/ 12 1006.6F   4/ 7
NORTHPORT PIER   1000   51     290/  5/  8 1007.5R
SISTER BAY       1013          330/  9/ 10   N/A
KEWAUNEE LAKESHO 1000   47     290/  5/  8 1006.4R
SHEBOYGAN LAKESH 1000   50 51  270/ 10/ 12 1007.9S
PORT WASHINGTON  1040   50     290/  8/ 12 1008.8R
ATWATER BUOY     1000   51     240/ 16/ 17 1008.8F
MILWAUKEE LAKESH 1000   51     270/ 11/ 14   N/A
S MID LAKE BUOY  0950   55 55  240/ 16/ 19 1008.6F   4/ 6
KENOSHA   LAKESH 1000   51     250/ 14/ 19 1008.5S
$$

TC  - TEMPERATURE IN CELSIUS
VSB - VISIBILITY IN STATUTE MILES
WCI - WIND CHILL INDEX
HX  - HEAT INDEX



USA.gov is the U.S. government's official web portal to all federal, state and local government web resources and services.